Los Angeles, CA

7:47 AM PDT on May 26, 2017 (GMT -0700)
Los Angeles International

Weather History for KLAX - January, 2013

Change the Weather History Date:

Monday, January 7, 2013

  Actual Average Record
Temperature  
Mean Temperature 57 °F 56 °F  
Max Temperature 66 °F 65 °F 86 °F (1962)
Min Temperature 47 °F 49 °F 36 °F (1971)
Degree Days  
Heating Degree Days 8 9  
Month to date heating degree days 75 63  
Since 1 July heating degree days 434 505  
Cooling Degree Days 0 0  
Month to date cooling degree days 0 0  
Year to date cooling degree days 0 0  
Growing Degree Days 8 (Base 50)    
Moisture  
Dew Point 36 °F    
Average Humidity 50    
Maximum Humidity 71    
Minimum Humidity 28    
Precipitation  
Precipitation 0.00 in 0.08 in 1.67 in (1974)
Month to date precipitation 0.13 0.62  
Year to date precipitation 0.13 0.62  
Since 1 July precipitation 4.41  
Sea Level Pressure  
Sea Level Pressure 30.03 in    
Wind  
Wind Speed 10 mph (NW)    
Max Wind Speed 26 mph    
Max Gust Speed 30 mph    
Visibility 10 miles    
Events      
T = Trace of Precipitation, MM = Missing Value Source: NWS Daily Summary

Daily Weather History Graph

Daily Weather History Graph

Search for Another Location

Airport or City:

Trip Planner

Search our weather history database for the weather conditions in past years. The results will help you decide how hot, cold, wet, or windy it might be!

Date:

Astronomy

Jan. 07, 2013 Rise Set
Actual Time 6:59 AM PST 5:00 PM PST
Civil Twilight 6:32 AM PST 5:28 PM PST
Nautical Twilight 6:01 AM PST 5:59 PM PST
Astronomical Twilight 5:30 AM PST 6:29 PM PST
Moon 2:31 AM PST (1/7) 1:13 PM PST (1/7)
Length of Visible Light 10h 56m
Length of Day
10h 01m
Waning Crescent, 21% of the Moon is Illuminated
Jan 7
Waning Crescent
Jan 11
New
Jan 18
First Quarter
Jan 26
Full
Feb 3
Last Quarter

Hourly Weather History & Observations

Time (PST) Temp. Dew Point Humidity Pressure Visibility Wind Dir Wind Speed Gust Speed Precip Events Conditions
12:53 AM 51.1 °F 41.0 °F 68% 30.03 in 10.0 mi Calm Calm - N/A   Scattered Clouds
1:53 AM 52.0 °F 37.0 °F 57% 30.01 in 10.0 mi Variable 4.6 mph - N/A   Scattered Clouds
2:53 AM 51.1 °F 35.1 °F 54% 30.02 in 10.0 mi NNW 9.2 mph - N/A   Scattered Clouds
3:53 AM 52.0 °F 33.1 °F 49% 30.00 in 10.0 mi NNW 11.5 mph 18.4 mph N/A   Scattered Clouds
4:53 AM 52.0 °F 33.1 °F 49% 30.01 in 10.0 mi NNW 11.5 mph - N/A   Scattered Clouds
5:53 AM 52.0 °F 30.9 °F 45% 30.05 in 10.0 mi NW 9.2 mph - N/A   Clear
6:53 AM 52.0 °F 30.9 °F 45% 30.08 in 10.0 mi WNW 13.8 mph 23.0 mph N/A   Scattered Clouds
7:53 AM 53.1 °F 32.0 °F 45% 30.11 in 10.0 mi West 5.8 mph - N/A   Scattered Clouds
8:53 AM 55.9 °F 30.9 °F 39% 30.11 in 10.0 mi NNW 8.1 mph - N/A   Scattered Clouds
9:53 AM 60.1 °F 30.0 °F 32% 30.10 in 10.0 mi NW 6.9 mph - N/A   Scattered Clouds
10:53 AM 62.1 °F 32.0 °F 32% 30.09 in 10.0 mi West 16.1 mph - N/A   Scattered Clouds
11:53 AM 60.1 °F 37.9 °F 44% 30.05 in 10.0 mi SW 12.7 mph - N/A   Scattered Clouds
12:53 PM 62.1 °F 39.0 °F 43% 30.01 in 10.0 mi WSW 15.0 mph - N/A   Scattered Clouds
1:53 PM 64.9 °F 30.9 °F 28% 29.99 in 10.0 mi West 21.9 mph - N/A   Mostly Cloudy
2:53 PM 64.0 °F 34.0 °F 33% 29.99 in 10.0 mi West 24.2 mph - N/A   Mostly Cloudy
3:53 PM 62.1 °F 36.0 °F 38% 29.98 in 10.0 mi West 20.7 mph - N/A   Scattered Clouds
4:53 PM 61.0 °F 42.1 °F 50% 29.98 in 10.0 mi West 15.0 mph - N/A   Scattered Clouds
5:53 PM 64.0 °F 36.0 °F 35% 29.98 in 10.0 mi NW 10.4 mph - N/A   Mostly Cloudy
6:53 PM 57.9 °F 42.1 °F 56% 30.00 in 10.0 mi ENE 8.1 mph - N/A   Scattered Clouds
7:53 PM 55.9 °F 43.0 °F 62% 30.01 in 10.0 mi NE 6.9 mph - N/A   Partly Cloudy
8:53 PM 54.0 °F 42.1 °F 64% 30.02 in 10.0 mi East 5.8 mph - N/A   Partly Cloudy
9:53 PM 55.9 °F 39.9 °F 55% 30.03 in 10.0 mi East 3.5 mph - N/A   Clear
10:53 PM 55.0 °F 39.0 °F 55% 30.04 in 10.0 mi East 4.6 mph - N/A   Clear
11:53 PM 53.1 °F 39.0 °F 59% 30.04 in 10.0 mi ESE 5.8 mph - N/A   Clear